Hourly Data Report for October 27, 2013

All times are specified in Local Standard Time (LST). Add 1 hour to adjust for Daylight Saving Time where and when it is observed.

PENTICTON A
BRITISH COLUMBIA

49°27'45.000" N
119°36'08.000" W
344.40 m
1126146
71889
YYF

Download Data

Hourly Data (October 2013)
Hourly Data Report for October 27, 2013
Temp Definition
°C
Dew Point Temp Definition
°C
Rel Hum Definition
%
Wind Dir Definition
10's deg

Wind Spd Definition
km/h
Visibility Definition
km
Stn Press Definition
kPa
Hmdx Definition


Wind Chill Definition


Weather Definition


TIME
00:00 Legend Double Dagger 6.7 5.7 93 5 12 24.1 97.72     Rain
01:00 Legend Double Dagger 6.0 5.3 95 24 4 24.1 97.52     Mostly Cloudy
02:00 Legend Double Dagger 5.8 5.2 96 33 2 24.1 97.47     LegendNANA
03:00 Legend Double Dagger 6.7 6.0 95 35 7 24.1 97.36     LegendNANA
04:00 Legend Double Dagger 7.0 6.0 93 2 11 24.1 97.31     Cloudy
05:00 Legend Double Dagger 7.3 5.9 91 3 13 16.1 97.35     Rain
06:00 Legend Double Dagger 6.8 5.8 93 36 5 16.1 97.32     Rain
07:00 Legend Double Dagger 6.9 5.9 93 33 14 19.3 97.29     Mostly Cloudy
08:00 Legend Double Dagger 7.6 6.2 91 35 11 19.3 97.31     LegendNANA
09:00 Legend Double Dagger 8.8 6.9 88 1 18 24.1 97.31     LegendNANA
10:00 Legend Double Dagger 10.6 6.6 76 35 15 24.1 97.32     Mostly Cloudy
11:00 Legend Double Dagger 10.1 4.7 69 33 29 24.1 97.37     LegendNANA
12:00 Legend Double Dagger 9.5 5.5 76 34 19 24.1 97.43     LegendNANA
13:00 Legend Double Dagger 9.1 5.5 78 34 20 24.1 97.48     Cloudy
14:00 Legend Double Dagger 9.5 5.3 75 36 20 24.1 97.51     Rain Showers
15:00 Legend Double Dagger 10.2 5.0 70 35 21 24.1 97.57     LegendNANA
16:00 Legend Double Dagger 9.9 5.5 74 1 12 24.1 97.63     Cloudy
17:00 Legend Double Dagger 11.2 4.5 63 32 30 24.1 97.67     LegendNANA
18:00 Legend Double Dagger 11.0 4.5 64 33 27 24.1 97.73     LegendNANA
19:00 Legend Double Dagger 11.0 3.8 61 33 26 24.1 97.79     Cloudy
20:00 Legend Double Dagger 10.5 3.8 63 34 17 24.1 97.82     LegendNANA
21:00 Legend Double Dagger 10.9 0.9 50 33 25 24.1 97.85     LegendNANA
22:00 Legend Double Dagger 9.9 1.3 55 33 24 24.1 97.85     Mostly Cloudy
23:00 Legend Double Dagger 9.3 1.0 56 33 23 24.1 97.89     LegendNANA

Notes on Data Quality.

Legend

  • E = Estimated
  • M = Missing
  • NA = Not Available
  • ‡ = Partner data that is not subject to review by the National Climate Archives
Date modified: